Location: Göttingen
(51.5413°N, 9.9158°E)
Time: 18:04:32
(UTC+02:00)

Tiros 1 despin weight - Pass Details

Date: 02 June 2022
Orbit: 591 x 639 km, 48.2° (Epoch: 04 July)

Event Time Altitude Azimuth Distance (km) Brightness Sun altitude
Rises 23:02:40 0° 274° (W) 2,853 ? -10.4°
Reaches altitude 10° 23:06:29 10° 241° (WSW) 1,934 ? -10.7°
Maximum altitude 23:07:57 12° 222° (SW) 1,830 ? -10.8°
Drops below altitude 10° 23:09:26 10° 202° (SSW) 1,923 ? -11.0°
Enters shadow 23:10:21 - 191° (S) 2,072 ? -11.0°
